Погода в Кругликове

Россия / Хабаровский край     48°06′17″N   135°07′20″E
темп.,
°C
ветер,
м/с
пор.,
м/с
влажн.,
%
обл.,
%
осадки,
мм/ч
давл.,
гПа
погр.,
м
15 мая, сб
сб1501:00+14юв3748100 0.0 1007112
04:00+13юв41153100 0.0 1005220
07:00+12ююв81878100 1.3 1003784
10:00+11ю71392100 12.3 1000701
13:00+13юз61593100 9.9 1000978
16:00+11юз71293100 16.9 1000631
19:00+12юз71486100 0.6 1001640
22:00+11юз61387100 2.4 1002361
16 мая, вс
вс1601:00+9юз613892 0.0 1003267
04:00+8юз615820 0.0 1003423
07:00+9зюз6158293 0.0 1003509
10:00+14зюз8136185 0.0 1002986
13:00+18з912447 0.0 10022220
16:00+20з712405 0.0 10002772
19:00+18з365446 0.0 1000139
22:00+12сз22620 0.0 100212
17 мая, пн
пн1701:00+10юв22710 0.0 100211
04:00+8ю22780 0.0 100212
07:00+10ю24750 0.0 100399
10:00+17ю35510 0.0 1002534
13:00+22юз69380 0.0 10001476
16:00+23зюз710390 0.0 10001761
19:00+20юз49522 0.0 1000220
22:00+15ююз49598 0.0 1001125
18 мая, вт
вт1801:00+13зюз11610 0.0 100111
04:00+11ююз33735 0.0 100232
07:00+13ю377956 0.0 1002207
10:00+21ююз61048100 0.0 1002872
13:00+25юз8123982 0.0 10001403
16:00+26ююз9123899 0.0 9981335
19:00+23ююз916444 0.0 997689
22:00+20ююз819455 0.0 998531
19 мая, ср
ср1901:00+17зюз512625 0.0 1000284
04:00+13зсз228454 0.2 100223
07:00+14ююз01725 0.1 100562
10:00+19ююз114395 0.1 1006895
13:00+22з1233100 0.0 10061637
16:00+20сз334267 0.0 1007487
19:00+19с1147100 0.0 100720
22:00+15вюв334992 0.0 100925